ECMWFNIL_250_rhum_057.txt.gz
RH
18 19 20 22 23 22 22 21 20 20 18 19 19 18 18 18 20 21 21 23 24 23 24 24 24 23 22 22 23 23 22 24 26 26 28 29 29 29 27 27 26 24
17 19 19 20 21 21 21 21 20 20 19 20 20 19 19 18 19 21 21 22 22 23 23 24 24 24 22 22 21 21 22 25 27 26 28 30 28 27 26 25 24 23
16 17 18 18 19 19 20 21 20 20 19 20 20 19 19 19 19 21 21 22 22 22 23 24 25 24 23 22 20 20 23 26 26 26 30 30 27 26 25 24 23 22
16 16 16 16 17 18 20 20 20 20 20 19 19 20 20 19 19 20 21 22 22 22 23 24 25 25 24 23 21 21 23 26 25 26 31 31 27 27 26 24 23 20
16 16 16 16 17 17 18 19 19 19 19 18 19 20 20 20 20 20 21 22 22 23 23 23 24 25 24 23 22 22 24 25 23 25 30 31 28 27 28 28 25 21
18 17 16 16 16 17 17 17 18 18 17 18 19 19 20 20 20 21 21 22 23 23 23 23 24 25 25 24 23 22 24 24 22 23 27 31 30 29 29 31 29 26
20 19 17 17 16 16 17 16 16 17 17 17 18 18 19 20 20 21 21 23 23 23 23 23 24 25 25 25 24 23 24 24 22 21 23 28 31 30 30 31 31 30
20 20 19 18 18 17 17 17 16 16 16 17 17 18 19 19 20 21 22 22 23 24 24 23 24 24 24 24 24 22 23 24 22 21 20 22 27 30 31 31 32 32
18 20 20 18 19 18 18 17 17 17 16 17 17 18 18 19 19 21 21 23 24 24 25 25 25 25 24 24 24 22 22 23 22 21 20 19 21 25 28 31 32 32
20 18 19 18 18 19 19 18 18 17 18 17 18 18 18 19 20 21 21 22 23 24 25 26 26 25 24 24 24 23 22 22 23 21 20 19 19 20 22 26 30 32
35 27 22 20 18 18 18 19 19 19 19 18 18 19 19 19 20 21 21 21 23 25 26 27 27 25 24 24 24 24 22 21 23 22 21 20 19 19 19 22 27 30
43 44 38 31 26 22 19 19 20 20 20 20 20 20 19 20 20 20 21 21 22 24 26 26 26 25 24 24 24 25 24 22 22 22 22 21 19 19 19 20 25 29
31 44 48 47 43 38 30 24 21 21 21 20 22 23 22 21 20 20 20 20 21 24 25 25 25 25 24 25 25 25 25 24 22 22 22 23 21 19 19 19 21 25
17 25 35 45 51 52 49 40 31 24 22 22 22 24 25 25 23 22 20 20 21 23 24 25 24 24 23 24 26 26 25 24 23 22 22 22 23 21 20 19 19 20
13 14 19 29 38 47 54 55 50 40 30 25 24 24 25 27 27 26 23 22 22 22 24 24 23 23 23 24 26 27 26 25 24 23 23 22 22 22 21 20 19 18
13 14 14 17 23 29 36 46 57 60 53 43 34 28 26 27 28 28 27 25 24 23 23 23 22 22 22 24 26 27 25 25 24 24 24 23 22 22 22 21 20 19
13 14 14 15 17 18 20 26 38 54 66 68 60 48 37 29 27 29 29 28 27 25 23 22 22 21 21 22 26 27 25 24 25 25 25 24 23 22 22 21 20 20
14 14 14 14 15 16 16 18 21 30 47 64 75 75 65 48 35 29 28 28 29 30 28 25 22 21 22 22 24 26 25 24 24 25 25 25 25 24 23 22 21 21
14 15 15 15 16 16 16 17 18 19 24 35 50 68 82 81 67 49 38 31 29 30 31 30 27 24 21 22 23 24 24 24 24 26 26 25 25 25 24 24 23 22
15 16 16 16 17 17 17 17 18 18 18 19 24 37 60 81 90 86 74 58 46 37 31 30 32 31 27 24 23 23 23 24 24 25 26 26 25 26 25 25 24 23
16 16 17 17 17 17 18 18 18 18 18 18 19 21 31 46 67 87 96 93 82 66 50 38 33 33 33 31 28 25 24 24 24 25 25 25 24 25 25 25 24 24
17 17 18 18 17 18 18 19 20 19 19 18 18 19 22 26 36 54 74 92 100 96 84 70 55 42 35 34 35 34 30 27 26 25 23 23 23 23 23 23 23 22
17 18 18 17 17 18 18 19 19 19 19 20 19 18 19 22 25 31 42 62 87 103 103 96 87 75 59 45 39 40 41 36 32 29 27 25 24 23 22 23 23 22
17 18 17 17 17 18 18 18 19 19 19 20 20 20 19 19 21 25 29 39 61 87 101 102 99 97 91 76 56 45 47 47 42 39 37 34 31 29 28 27 27 27
17 18 18 18 18 17 18 18 18 19 20 20 20 20 19 19 18 21 25 28 37 57 79 95 101 100 101 100 84 61 50 49 50 48 47 45 43 40 38 36 36 35
18 19 19 18 18 18 18 18 18 18 19 20 21 21 20 20 19 18 21 24 26 34 48 72 95 102 100 101 99 82 64 56 56 57 57 59 58 54 50 47 45 43

ECMWFNIL_250_rhum_060.txt.gz
RH
19 21 24 24 26 26 26 26 24 22 20 19 20 20 21 21 21 23 23 23 24 25 26 26 25 24 22 21 21 19 20 22 23 25 27 26 25 25 23 22 21 20
18 20 22 22 24 24 23 24 23 23 22 20 21 21 21 20 20 21 22 22 23 24 25 25 25 24 23 22 21 19 20 22 22 25 27 26 25 26 26 25 22 19
18 19 20 20 21 22 23 25 24 23 23 21 21 21 22 22 21 20 21 21 22 23 24 24 24 24 23 22 22 20 20 22 22 23 27 27 25 27 29 29 27 23
18 18 19 19 20 21 22 24 25 24 23 22 21 22 22 21 22 22 21 21 22 23 23 24 23 23 23 22 22 21 20 21 22 22 24 27 27 27 29 30 31 29
16 17 18 18 18 20 21 22 23 24 23 22 22 22 21 20 22 23 22 21 22 23 24 24 24 23 23 22 22 22 21 21 22 21 22 25 27 28 28 28 30 31
15 15 17 17 18 18 19 20 21 22 22 22 22 22 21 20 20 21 22 22 22 23 25 25 25 24 23 22 22 22 22 21 21 22 21 21 24 26 27 27 27 29
14 14 15 15 16 17 18 18 18 20 20 20 20 21 20 19 19 20 21 22 22 23 24 25 25 25 23 22 22 22 22 21 21 22 21 20 20 22 23 23 24 26
12 14 14 14 15 15 16 17 17 18 18 19 20 19 19 18 18 19 19 20 21 22 24 25 25 25 24 23 23 23 22 22 21 21 21 21 20 19 20 20 20 22
12 13 13 13 14 14 15 16 16 17 17 18 18 17 18 18 17 18 18 18 19 20 22 24 24 25 24 23 23 23 23 23 22 21 21 21 21 19 19 19 18 19
13 14 14 13 13 13 14 14 15 16 16 16 17 17 17 17 16 17 17 17 18 19 21 23 24 24 23 23 24 23 23 23 23 22 22 21 21 21 19 19 19 18
19 17 15 14 14 13 14 14 14 15 15 15 16 16 17 17 17 17 17 17 18 19 21 22 23 23 22 22 23 23 23 23 23 22 22 21 21 21 21 19 19 19
23 23 20 18 16 14 14 15 16 16 16 16 16 17 17 17 17 17 18 18 18 19 21 22 23 23 22 22 22 23 23 23 23 23 22 22 21 20 21 20 19 20
18 21 23 23 20 19 17 15 15 16 17 17 18 19 19 19 19 19 19 19 19 20 21 22 23 22 21 21 21 22 24 23 22 22 22 22 22 21 20 20 20 20
13 14 18 21 22 24 23 21 19 17 17 17 18 19 20 21 21 21 21 22 22 22 22 22 23 22 21 21 22 22 24 24 23 22 23 22 22 22 21 20 20 20
12 12 13 15 19 22 24 26 27 25 22 21 19 19 20 21 23 23 24 24 24 24 24 23 23 22 21 21 22 23 24 24 24 23 23 23 22 22 22 20 20 19
12 13 12 12 14 16 17 20 26 31 32 29 27 25 24 22 23 23 24 25 26 26 26 25 24 23 22 21 21 23 24 24 24 24 23 24 23 22 22 22 21 20
12 13 13 13 13 12 13 13 16 23 29 32 34 35 33 31 28 26 25 25 25 26 27 27 26 24 23 23 22 22 23 23 23 24 23 23 23 22 23 22 22 21
13 13 12 13 13 12 13 13 13 15 19 24 27 31 36 40 40 37 35 31 28 28 28 27 27 27 25 25 25 23 23 23 22 23 22 22 23 22 23 23 23 22
12 13 13 13 13 13 14 13 14 14 14 17 17 18 25 32 38 42 44 45 42 37 35 31 28 28 26 26 28 27 26 25 24 23 22 22 22 22 22 24 24 23
12 12 13 14 13 14 14 14 16 15 14 15 15 14 17 19 23 28 35 47 55 54 52 47 40 37 34 30 29 29 30 30 28 27 25 23 22 22 23 24 23 23
12 12 12 14 13 13 14 14 15 15 14 15 16 15 17 17 17 19 21 31 46 58 65 67 64 61 57 51 44 36 32 31 31 30 29 28 26 25 23 23 24 23
12 13 11 13 13 12 14 13 13 15 13 14 16 15 16 17 17 18 19 19 26 39 53 67 78 82 80 76 74 65 52 44 40 36 34 33 32 31 30 28 26 25
11 14 10 13 14 11 13 13 12 14 13 13 15 15 15 16 16 17 19 18 19 23 30 41 57 73 78 79 87 94 87 75 67 61 53 46 41 38 37 36 34 32
11 15 11 12 15 12 13 14 12 14 14 13 15 15 15 15 15 16 18 18 18 19 20 22 28 40 49 52 64 87 100 100 94 89 83 75 66 57 50 45 43 41
11 14 12 13 14 12 13 14 13 14 15 14 15 15 15 15 15 16 17 17 18 18 18 20 19 21 26 27 32 51 75 94 102 101 98 96 92 85 75 64 56 51
12 13 14 13 13 13 14 14 14 15 15 15 15 15 15 16 15 16 16 16 17 17 18 19 19 19 20 21 21 25 38 58 78 92 101 103 99 94 90 83 74 66

ECMWFNIL_250_rhum_063.txt.gz
RH
22 22 25 26 27 29 28 29 28 26 25 24 23 24 24 24 24 24 24 24 24 23 23 23 23 22 22 21 21 19 19 20 22 26 28 27 29 32 33 32 31 30
22 23 25 26 26 28 28 28 28 26 25 25 24 24 24 23 23 23 23 23 23 23 23 23 22 23 22 21 21 20 20 20 21 23 26 28 29 30 33 33 33 33
22 23 23 24 25 26 27 28 27 26 25 25 26 26 25 24 24 24 23 22 22 22 22 22 22 22 22 22 21 21 20 20 20 21 23 27 29 29 31 33 33 33
19 21 22 23 24 25 26 26 26 26 25 25 27 28 27 25 24 24 25 23 22 22 22 22 22 21 21 21 21 21 21 20 20 20 21 23 26 28 29 31 32 33
17 18 20 21 22 24 25 25 25 25 25 26 27 29 28 27 26 24 25 24 23 23 23 22 21 21 21 20 21 21 21 21 20 20 20 21 22 24 25 27 28 29
16 17 18 18 20 22 22 23 24 24 24 25 26 28 27 27 26 24 23 24 24 23 23 22 21 21 20 20 20 20 20 21 20 20 20 20 21 21 21 21 22 24
14 15 16 17 18 19 21 21 22 22 22 22 24 25 26 26 25 24 23 22 22 23 23 22 21 20 20 20 20 20 20 20 20 20 20 19 20 20 20 19 19 20
11 12 13 15 16 16 19 20 20 21 20 20 22 22 23 24 23 22 22 21 20 21 22 22 21 20 19 19 20 21 20 20 20 19 19 20 20 20 20 20 19 19
11 12 11 12 13 14 16 17 18 19 18 19 20 21 21 21 21 21 21 20 19 19 20 21 21 21 20 20 20 21 21 20 20 19 19 19 19 19 20 20 20 19
12 11 12 11 10 12 13 14 15 16 17 17 17 18 19 19 19 20 19 19 18 18 19 20 21 21 20 20 20 21 21 21 20 20 19 19 19 20 20 20 20 20
15 12 12 12 11 11 11 12 13 14 14 15 16 16 17 18 18 17 18 18 17 18 19 19 21 21 20 20 20 20 21 22 21 20 20 20 20 20 19 20 20 20
18 18 16 15 14 14 13 12 13 13 13 13 14 15 15 16 16 15 16 17 17 18 19 19 20 21 21 21 21 21 22 22 22 21 21 21 21 21 20 19 20 20
15 17 18 17 17 16 17 16 14 13 14 14 14 14 15 15 15 15 16 16 17 18 18 19 20 20 21 21 21 22 22 22 23 21 21 21 21 21 21 20 20 20
12 13 14 15 15 16 18 19 19 17 15 15 15 14 15 15 16 16 17 17 18 19 19 20 20 20 21 21 21 22 22 22 22 21 20 20 20 20 20 20 19 19
10 11 12 12 11 13 14 16 19 20 20 18 17 16 16 16 16 17 18 18 18 19 20 21 21 22 22 22 22 22 23 22 21 20 21 20 19 19 19 19 19 19
10 10 10 11 10 10 11 12 14 17 21 22 21 21 20 18 18 17 17 18 19 19 20 21 22 22 22 23 24 23 23 23 22 21 21 20 20 20 19 19 19 19
10 9 9 9 10 10 9 10 11 12 15 19 22 24 25 24 24 23 21 21 20 20 21 21 21 22 23 24 25 25 24 24 24 23 23 22 22 21 20 20 20 20
10 8 10 9 7 10 10 9 11 11 11 13 15 18 20 22 23 25 26 28 28 27 26 26 26 27 28 28 28 28 28 28 27 26 25 25 24 23 24 23 22 22
14 9 8 10 8 8 9 9 10 11 10 10 11 13 15 17 17 18 22 26 29 31 31 31 31 32 34 36 37 37 36 36 35 33 31 30 29 28 27 26 25 26
15 13 7 9 10 8 9 9 8 9 10 9 10 11 12 13 14 14 15 18 21 25 26 26 26 26 27 33 38 43 46 47 47 47 46 44 43 40 37 34 33 31
14 14 10 9 11 9 8 9 8 8 10 9 9 10 11 12 13 13 13 14 15 17 19 20 19 18 18 22 27 35 43 47 49 53 57 61 65 66 62 57 52 48
22 15 14 10 10 11 9 9 9 8 8 9 9 9 9 10 11 12 12 12 13 14 15 16 16 16 15 15 18 22 28 33 36 38 44 54 68 84 92 90 84 76
41 20 17 14 10 11 11 9 10 9 8 9 10 9 10 10 10 11 12 11 12 13 13 14 14 14 15 15 15 16 18 21 23 24 26 30 39 60 81 92 97 96
62 28 18 17 13 11 12 11 10 10 9 9 10 10 10 11 11 11 12 12 12 13 13 14 15 14 15 15 14 16 17 18 19 19 20 20 21 26 38 52 66 79
87 52 25 19 17 11 11 12 9 9 10 9 10 11 10 11 12 11 12 12 12 13 13 14 16 15 15 16 15 16 17 18 19 19 18 19 20 19 20 24 29 39
94 82 40 22 23 15 10 13 9 8 11 9 9 11 10 11 12 11 13 13 11 13 14 14 15 15 15 16 15 15 16 17 19 19 18 18 19 19 20 20 20 22

ECMWFNIL_250_rhum_069.txt.gz
RH
27 25 24 24 26 25 24 21 19 20 19 19 19 17 18 17 17 18 18 18 18 18 18 18 18 18 18 19 19 20 20 22 22 22 23 24 25 25 23 23 24 26
27 26 24 24 25 25 24 21 19 20 20 19 18 17 17 17 16 17 17 17 17 17 17 17 17 17 18 18 18 19 20 20 21 21 22 22 22 22 21 21 21 22
27 26 25 24 25 26 25 23 22 21 20 19 17 17 16 16 16 16 16 17 17 17 17 17 17 17 17 18 18 19 19 20 21 21 21 21 21 21 20 20 20 20
27 25 24 24 26 27 27 26 25 23 22 21 18 17 17 16 17 17 17 18 19 19 19 18 18 18 18 18 18 19 19 20 20 21 21 21 21 21 21 20 20 20
27 26 25 24 25 26 26 26 26 25 25 24 21 19 18 17 17 18 18 18 19 19 19 20 20 19 19 18 18 19 19 20 21 21 21 21 21 21 21 21 21 20
25 25 25 24 24 24 24 24 25 26 27 27 25 23 21 19 19 18 19 19 19 19 19 20 20 20 20 19 19 19 19 20 21 22 22 22 22 22 22 22 21 21
20 21 22 23 23 22 22 23 24 25 26 27 27 26 24 22 21 20 20 20 20 20 21 21 20 20 20 19 18 18 19 19 20 22 23 23 23 23 23 23 22 22
16 17 19 20 20 21 22 22 22 22 23 24 25 25 25 25 24 23 22 23 23 22 22 22 21 20 20 19 19 18 18 19 20 21 22 23 24 24 24 24 23 23
16 15 16 17 17 18 20 20 20 20 20 21 23 24 25 25 25 24 23 23 23 23 22 22 21 20 19 19 18 18 18 19 19 21 22 22 23 23 24 24 24 23
17 16 16 16 15 16 16 17 17 18 18 19 21 22 22 23 23 23 23 22 22 22 21 21 21 19 19 19 18 18 18 18 19 20 20 21 22 23 22 22 23 23
16 16 16 15 15 15 15 15 15 16 17 18 19 20 20 21 21 21 21 21 21 21 20 20 19 18 18 18 18 18 18 18 19 19 20 21 21 22 23 22 22 23
15 15 15 14 15 15 15 16 16 15 16 17 18 19 19 19 19 19 19 19 19 19 18 18 17 17 17 17 17 18 18 19 20 20 21 22 23 23 24 24 24 24
14 15 15 14 15 16 17 18 18 16 16 16 16 17 19 19 18 17 17 17 17 16 16 16 16 16 16 17 17 18 19 19 20 22 23 24 26 27 28 29 29 29
13 13 14 15 14 16 18 18 18 17 15 15 15 16 17 17 17 16 16 16 15 15 15 16 16 16 16 17 18 19 20 22 23 26 28 29 31 32 33 35 35 36
15 14 13 15 15 15 16 16 16 16 14 14 14 14 15 16 16 16 16 16 16 16 16 16 16 18 18 19 21 22 24 26 28 30 32 34 36 37 37 38 40 42
13 16 15 15 16 14 15 15 15 15 15 15 15 14 15 16 16 17 17 17 18 17 18 19 19 21 22 23 24 25 25 26 27 29 31 32 34 35 36 36 38 40
15 11 12 13 13 11 11 12 13 14 15 16 17 16 17 18 19 20 20 19 20 20 20 21 23 23 25 26 25 24 23 22 22 21 21 23 24 26 28 29 31 32
40 18 11 9 10 10 8 7 8 11 13 14 16 17 19 20 21 21 23 23 22 23 22 22 23 25 25 24 22 20 18 17 17 16 15 16 17 18 19 21 23 24
63 39 25 15 11 10 9 10 9 8 9 10 11 14 18 21 22 22 23 24 21 19 19 19 21 22 21 19 17 15 15 14 14 14 13 14 15 14 15 16 17 18
78 61 44 27 19 15 10 11 11 9 9 8 7 11 14 16 18 19 20 20 18 15 14 15 16 16 15 15 14 13 14 14 13 13 13 13 13 13 14 15 16 16
97 86 64 42 37 38 31 23 19 14 11 10 8 8 10 10 11 14 15 16 14 12 11 11 11 12 12 12 13 13 13 14 13 12 12 12 12 13 13 14 15 16
108 102 82 59 58 73 79 69 53 35 20 15 11 8 8 8 9 10 11 11 11 10 11 10 9 11 12 11 12 13 13 13 12 12 11 11 11 12 13 14 15 16
101 98 89 71 64 83 103 103 91 74 49 28 16 11 10 8 8 10 9 10 12 11 10 11 10 10 11 11 11 12 12 12 12 12 12 11 11 11 12 14 14 15
95 95 95 78 59 71 97 105 103 101 87 57 27 13 12 10 8 11 11 10 12 12 11 11 11 11 11 10 11 11 12 12 11 12 11 10 10 11 12 13 14 14
96 98 103 88 60 61 88 103 101 103 103 84 49 20 11 11 9 10 12 12 12 12 11 11 11 11 10 10 10 11 12 12 11 11 11 10 10 11 11 13 13 14
101 99 105 97 67 56 82 103 101 99 104 99 72 39 18 12 11 11 12 12 12 12 12 11 10 11 10 10 11 11 11 12 12 11 10 9 10 11 11 12 13 14

ECMWFNIL_250_rhum_072.txt.gz
RH
24 24 23 21 22 21 22 24 24 23 21 21 21 19 18 17 16 17 16 17 17 17 18 19 19 20 20 20 19 19 19 19 19 20 20 21 20 20 20 20 20 21
24 24 24 22 21 22 23 24 24 22 20 20 20 19 18 17 16 16 16 16 17 18 19 19 19 20 20 21 21 20 20 20 19 19 20 21 21 21 21 20 20 20
25 24 25 23 21 22 24 26 25 23 20 20 21 19 18 17 16 15 16 17 18 19 20 20 20 21 21 21 21 21 21 20 20 21 20 20 21 21 21 21 21 20
26 24 25 25 23 23 24 27 26 24 22 22 22 20 18 17 16 16 17 18 19 20 20 21 21 22 22 21 21 21 21 21 21 21 21 21 21 21 21 21 21 21
27 26 26 26 25 24 24 26 26 26 26 26 25 23 20 18 17 17 17 18 20 21 21 23 23 23 23 22 22 21 21 21 21 21 21 21 21 21 21 21 21 21
26 26 27 27 27 26 25 26 27 28 29 29 28 28 25 21 19 18 19 20 21 23 24 25 25 25 25 23 22 22 21 21 21 21 21 21 21 21 20 20 21 20
24 25 26 28 28 27 26 26 27 28 29 29 30 31 30 27 24 22 22 23 24 26 27 27 27 27 26 25 23 22 21 21 20 21 21 21 21 21 21 20 20 20
21 23 26 28 29 28 27 27 27 27 28 28 30 32 32 31 29 27 26 27 27 28 29 28 28 27 26 26 24 22 21 20 19 20 20 21 21 21 22 21 21 21
20 21 24 26 27 28 28 27 28 27 27 27 28 30 31 31 30 29 29 29 29 29 30 29 27 26 25 25 23 22 21 20 19 20 20 21 22 22 23 23 23 23
21 21 22 24 24 25 26 25 26 27 26 26 27 28 29 28 28 28 28 29 29 29 29 28 27 25 24 24 23 21 20 19 19 19 20 21 22 23 24 25 25 26
20 20 20 21 21 22 23 23 23 23 24 24 25 25 25 25 24 24 25 26 27 27 26 26 25 24 23 22 21 20 19 19 19 19 21 22 23 25 27 28 29 30
17 18 18 17 17 18 20 22 22 22 22 22 23 23 23 23 22 21 21 22 23 23 23 23 22 21 21 19 19 19 19 19 20 20 22 24 26 29 30 32 33 34
15 15 15 14 15 15 16 18 19 20 20 20 21 21 21 22 22 21 20 19 20 20 20 20 20 18 17 18 18 18 19 19 21 23 25 27 29 31 33 34 35 37
15 15 15 14 14 14 15 16 16 16 17 18 18 19 19 19 19 19 18 18 17 17 18 17 17 16 17 17 18 18 20 22 23 25 27 29 30 32 33 34 34 35
14 15 15 15 15 15 15 15 15 15 15 16 16 17 16 15 15 15 15 16 15 15 16 16 16 17 17 17 19 20 22 24 25 27 28 29 30 30 30 30 29 28
15 14 14 16 16 16 17 17 17 17 16 16 16 16 16 14 14 14 13 14 15 15 16 16 16 17 17 18 20 21 22 23 24 26 28 27 27 27 26 25 23 22
14 14 13 14 15 16 17 18 18 17 16 15 15 14 15 14 13 13 14 14 14 15 15 15 16 17 18 18 19 19 20 20 22 23 24 24 25 25 24 21 20 19
13 15 14 13 13 14 15 16 16 17 15 14 14 13 12 14 13 13 14 14 14 14 13 12 13 15 16 16 15 15 15 16 18 19 19 20 21 22 22 20 18 18
11 11 13 14 13 13 13 14 14 16 17 15 15 15 13 13 14 14 13 13 13 12 11 10 11 12 13 13 11 11 12 12 14 16 16 16 18 18 19 18 17 17
39 23 17 16 17 16 13 14 14 13 16 16 15 16 16 15 14 13 13 13 12 10 9 9 10 10 9 10 9 9 10 11 12 13 13 13 15 15 16 16 17 17
90 67 48 39 43 38 22 16 17 12 11 14 14 16 16 15 15 14 12 12 10 10 9 7 8 9 8 8 9 9 10 11 11 11 11 12 13 13 14 15 15 16
107 98 83 74 82 76 45 25 23 17 11 11 11 13 14 14 15 14 12 11 9 8 9 9 8 8 9 9 9 10 11 11 10 10 10 11 12 11 13 14 14 15
106 105 98 91 98 101 76 47 30 20 15 14 11 11 12 11 13 13 11 11 11 9 9 9 9 9 9 10 9 10 11 10 10 10 10 11 11 11 12 13 13 14
104 102 101 96 99 106 97 73 49 29 19 16 16 16 15 11 10 12 11 10 10 11 10 9 9 10 10 10 10 10 11 10 10 11 11 10 10 11 12 12 13 13
104 102 103 102 99 102 99 87 70 50 31 23 27 34 36 27 15 9 10 11 10 9 10 10 9 9 10 11 10 10 11 11 10 10 10 10 11 12 13 12 12 14
104 101 103 105 99 92 90 86 76 60 45 42 53 66 70 62 46 27 12 7 10 10 9 9 10 10 10 10 10 11 11 10 11 10 9 10 11 12 12 13 13 14

ECMWFNIL_250_rhum_075.txt.gz
RH
24 22 23 21 19 18 17 18 21 22 19 17 15 15 15 15 15 15 15 17 18 19 19 20 20 20 20 20 21 21 21 21 21 21 21 20 20 20 20 20 20 20
25 23 23 23 21 19 18 19 21 22 20 18 17 15 15 15 15 15 16 18 19 20 21 21 22 21 21 21 21 21 22 22 22 21 21 21 21 21 20 21 21 21
26 25 24 24 23 21 19 19 21 22 20 18 18 17 16 16 16 15 16 18 19 20 21 22 23 23 23 22 22 21 21 21 22 22 22 22 22 21 21 21 22 22
26 26 25 25 25 23 21 20 21 23 22 18 18 18 17 16 16 15 16 18 19 20 22 24 25 25 25 24 23 22 21 21 22 22 22 22 23 22 23 22 23 23
26 26 27 27 26 25 23 21 21 23 23 20 18 18 17 16 15 15 16 17 19 21 23 25 27 28 28 28 26 24 22 21 21 21 22 22 22 23 23 24 24 24
24 25 27 28 27 26 25 23 22 23 23 22 21 20 19 16 15 15 16 16 18 21 24 27 29 29 29 29 29 27 24 22 21 21 21 21 22 23 23 24 25 25
22 23 25 27 27 26 26 25 23 22 23 23 22 22 20 19 16 15 15 16 17 20 24 27 29 29 29 29 29 28 26 23 22 21 21 21 22 23 24 25 25 26
21 22 23 24 25 25 25 26 24 22 22 23 22 22 21 20 18 16 15 15 16 19 23 26 27 28 28 27 27 28 26 24 22 21 22 22 22 24 25 26 26 27
22 22 22 21 21 22 22 23 24 22 21 21 21 20 20 20 19 18 17 17 17 19 21 23 24 24 25 25 25 25 24 23 22 21 22 22 23 25 25 27 29 29
23 23 23 21 19 20 20 21 22 21 20 20 20 19 18 19 19 19 19 19 19 21 21 22 22 22 22 22 22 21 21 20 20 20 21 22 24 25 27 29 31 32
23 24 24 23 20 20 20 20 21 21 20 20 20 19 19 19 20 20 21 21 21 22 22 22 21 21 21 20 19 19 19 19 19 20 21 23 25 28 30 31 33 35
21 25 26 24 22 21 22 22 23 23 23 23 22 21 21 21 21 22 22 23 23 23 23 22 22 20 20 19 18 17 18 18 19 20 22 24 26 28 30 32 35 36
19 22 25 25 24 23 24 25 26 26 26 27 26 25 25 24 23 23 24 24 24 23 22 20 20 19 19 18 17 17 18 19 19 21 23 25 27 28 30 32 32 32
18 20 21 23 25 25 27 27 28 28 27 27 28 28 28 26 25 24 24 25 24 23 21 19 17 17 17 17 17 17 18 19 20 22 24 25 26 27 27 27 26 25
15 18 19 20 23 24 27 28 28 27 26 27 28 27 26 26 25 24 24 24 24 22 20 18 16 16 16 16 17 18 18 19 20 22 24 24 23 24 23 21 20 19
14 15 16 18 20 22 24 26 26 26 25 25 25 24 24 24 23 23 23 22 22 22 20 18 16 16 16 16 17 17 18 19 21 22 21 20 20 19 18 17 16 16
16 15 15 15 17 19 21 22 23 23 23 23 22 20 20 20 20 20 20 20 21 20 18 17 16 16 17 17 17 17 18 19 20 20 18 17 16 15 14 14 15 14
22 17 15 13 13 15 17 19 20 21 21 21 22 20 18 17 17 16 16 16 18 18 16 15 15 17 18 18 18 18 18 19 18 17 17 15 13 13 12 12 13 14
29 21 16 13 13 13 13 15 17 18 19 19 20 20 19 19 18 16 14 14 14 14 15 15 15 17 18 19 20 19 19 18 17 16 16 14 12 12 12 12 12 13
36 28 18 13 13 13 13 16 17 17 16 15 16 17 19 20 19 17 15 14 14 14 14 14 15 16 18 19 20 20 19 18 18 16 15 13 12 12 12 12 12 12
44 30 17 13 14 13 13 14 15 17 15 14 14 14 15 16 16 17 16 15 14 14 14 14 14 14 17 19 19 20 19 18 17 15 13 12 12 12 12 12 12 12
49 31 19 15 13 13 15 15 14 15 15 15 15 14 14 14 13 13 14 14 14 14 14 13 12 13 15 16 17 18 18 17 15 13 12 11 11 12 12 12 12 12
57 37 27 22 18 15 14 14 14 15 14 14 16 16 14 13 12 11 10 11 12 12 13 12 10 11 12 13 14 15 15 14 12 11 10 11 11 11 12 12 12 12
65 43 38 39 41 41 31 19 16 19 21 18 15 16 16 13 11 11 10 9 10 9 10 9 8 9 10 11 12 12 12 11 10 11 11 10 11 12 12 12 12 12
74 49 43 52 71 85 80 61 46 41 42 37 24 16 15 14 12 12 10 9 9 8 7 7 7 8 9 9 10 10 10 11 10 10 10 10 10 11 11 11 12 13
87 58 41 52 79 96 95 92 90 84 78 71 52 31 20 14 13 13 13 11 9 8 7 7 6 7 8 8 9 10 9 9 10 10 9 9 10 11 11 11 11 13